Flag for Finland Weather past 2 weeks in Oulu, Finland

Now
39 °F

Clear.


Feels Like: 35 °F
Forecast: 36 / 45 °F
Wind: 6 mph from Southwest

Location: Oulu Airport

Current Time: Apr 22, 2015 at 12:38:21 AM

Latest Report: Apr 21, 2015 at 11:50 PM


Visibility: 10 mi

Pressure: 29.95 "Hg

Humidity: 81%

Dew point: 34 °F

Location of OuluLocation

Historic Weather in Oulu — Graph

°F

Oulu temperature yesterday

Maximum temperature yesterday: 48 °F (at 12:20 PM)
Minimum temperature yesterday: 34 °F (at 2:50 AM)
Average temperature yesterday: 41 °F

Past Weeks' High & Low Weather Summary

 TemperatureHumidityPressure
High54 °F (Apr 12, 2:50 PM)100% (Apr 10, 12:50 PM)30.07 "Hg (Apr 10, 12:50 PM)
Low30 °F (Apr 13, 11:50 PM)43% (Apr 20, 5:20 PM)29.18 "Hg (Apr 16, 2:20 AM)
Average39 °F74%29.67 "Hg
* Reported Apr 6 11:20 PM — Apr 21 11:20 PM, Oulu, Weather by CustomWeather, © 2015

Note: Actual official high and low records may vary slightly from our data, if they occured in-between our weather recording intervals... More about our weather records

Advertising

Oulu weather history for previous 24 hours

 ConditionsComfort  
Time TempWeatherWind HumidityBarometerVisibility
11:20 PM
Tue, Apr 21
39 °FClear.6 mph81%29.98 "Hg10 mi
10:50 PM39 °FClear.6 mph81%29.98 "Hg10 mi
10:20 PM39 °FPassing clouds.2 mph81%29.98 "HgN/A
9:50 PM41 °FPassing clouds.5 mph76%30.01 "HgN/A
9:20 PM41 °FPassing clouds.7 mph76%30.01 "HgN/A
8:50 PM41 °FScattered clouds.3 mph76%30.01 "HgN/A
8:20 PM43 °FPassing clouds.2 mph71%30.01 "HgN/A
7:50 PM45 °FPassing clouds.5 mph66%30.01 "HgN/A
7:20 PM46 °FSunny.6 mph66%30.01 "Hg10 mi
6:50 PM48 °FPassing clouds.7 mph58%30.01 "HgN/A
6:20 PM46 °FPassing clouds.8 mph62%30.04 "HgN/A
5:50 PM46 °FSunny.10 mph62%30.04 "Hg10 mi
5:20 PM48 °FScattered clouds.10 mph58%30.04 "HgN/A
4:50 PM46 °FOvercast.10 mph66%30.04 "HgN/A
4:20 PM48 °FOvercast.12 mph58%30.04 "HgN/A
3:50 PM48 °FOvercast.13 mph58%30.04 "HgN/A
3:20 PM48 °FOvercast.13 mph58%30.04 "HgN/A
2:50 PM48 °FOvercast.13 mph58%30.04 "HgN/A
2:20 PM46 °FPartly sunny.10 mph62%30.04 "HgN/A
1:50 PM46 °FPartly sunny.14 mph62%30.04 "HgN/A
1:20 PM48 °FScattered clouds.13 mph58%30.04 "HgN/A
12:50 PM46 °FPassing clouds.12 mph62%30.07 "HgN/A
12:20 PM48 °FPassing clouds.15 mph58%30.07 "HgN/A
11:50 AM46 °FSunny.14 mph62%30.07 "Hg10 mi
11:20 AM46 °FSunny.14 mph62%30.07 "Hg10 mi
10:50 AM45 °FPartly sunny.13 mph66%30.07 "HgN/A
10:20 AM45 °FPartly sunny.9 mph66%30.07 "HgN/A
9:50 AM41 °FScattered clouds.8 mph70%30.07 "HgN/A
9:20 AM39 °FOvercast.9 mph81%30.07 "HgN/A
8:50 AM39 °FOvercast.10 mph75%30.07 "HgN/A
8:20 AM39 °FPartly sunny.8 mph81%30.07 "HgN/A
7:50 AM37 °FPassing clouds.5 mph81%30.04 "HgN/A
7:20 AM36 °FPartly sunny.5 mph87%30.07 "HgN/A
6:20 AM36 °FOvercast.6 mph87%30.07 "HgN/A
5:50 AM34 °FOvercast.5 mph93%30.07 "HgN/A
5:20 AM34 °FOvercast.3 mph87%30.07 "HgN/A
4:50 AM34 °FPassing clouds.3 mph87%30.04 "HgN/A
4:20 AM34 °FPassing clouds.7 mph87%30.04 "HgN/A
3:50 AM34 °FPassing clouds.6 mph81%30.04 "HgN/A
3:20 AM34 °FClear.8 mph81%30.04 "Hg10 mi
2:50 AM34 °FPassing clouds.8 mph81%30.04 "HgN/A
2:20 AM36 °FPassing clouds.8 mph81%30.04 "HgN/A
1:50 AM37 °FOvercast.6 mph75%30.04 "HgN/A
1:20 AM36 °FOvercast.7 mph81%30.04 "HgN/A
12:50 AM36 °FOvercast.6 mph87%30.04 "HgN/A
12:20 AM36 °FOvercast.8 mph87%30.04 "HgN/A
Weather by CustomWeather, © 2015

See weather overviewHow to use our weather pages